FW3933 Weather Reports


Display with metric or nautical units.
time (UTC)temp
F
wind
direction
speed
MPH
gust
MPH
rain 1hr
in
rain 24hr
in
rain mn
in
humidity
%
barometer
mb
20260507205026 78 47 0.0 0.0 0.00 0.00 0.00 51 1022.0
20260507204525 78 48 0.0 3.0 0.00 0.00 0.00 51 1022.1
20260507204024 79 65 0.0 4.0 0.00 0.00 0.00 51 1022.1
20260507203523 78 70 0.0 4.0 0.00 0.00 0.00 50 1022.2
20260507203022 78 76 0.0 2.0 0.00 0.00 0.00 51 1022.3
20260507202521 78 78 0.0 4.0 0.00 0.00 0.00 51 1022.4
20260507202021 78 91 0.0 4.0 0.00 0.00 0.00 51 1022.3
20260507201521 78 88 0.0 4.0 0.00 0.00 0.00 53 1022.4
20260507200521 78 90 0.0 3.0 0.00 0.00 0.00 53 1022.5
20260507200020 77 90 0.0 5.0 0.00 0.00 0.00 55 1022.5
20260507195518 76 90 1.0 6.0 0.00 0.00 0.00 56 1022.5
20260507195022 76 90 1.0 6.0 0.00 0.00 0.00 57 1022.6
20260507194517 77 85 0.0 5.0 0.00 0.00 0.00 55 1022.6
20260507194017 76 83 0.0 6.0 0.00 0.00 0.00 56 1022.7
20260507193517 77 85 1.0 6.0 0.00 0.00 0.00 55 1022.7
20260507193021 77 95 1.0 5.0 0.00 0.00 0.00 56 1022.8
20260507192515 76 101 1.0 5.0 0.00 0.00 0.00 56 1022.8
20260507192013 76 97 0.0 4.0 0.00 0.00 0.00 55 1022.9
20260507191513 76 101 0.0 3.0 0.00 0.00 0.00 56 1022.9
20260507190515 75 97 0.0 5.0 0.00 0.00 0.00 60 1023.1
20260507190014 74 99 1.0 5.0 0.00 0.00 0.00 60 1023.2
20260507185508 73 87 0.0 7.0 0.00 0.00 0.00 62 1023.3
20260507185011 73 103 3.0 8.0 0.00 0.00 0.00 61 1023.3
20260507184507 73 95 2.0 8.0 0.00 0.00 0.00 62 1023.4
20260507184007 73 88 3.0 7.0 0.00 0.00 0.00 61 1023.4
20260507183510 72 95 2.0 7.0 0.00 0.00 0.00 61 1023.4
20260507183009 73 95 3.0 7.0 0.00 0.00 0.00 62 1023.5
20260507182506 72 94 1.0 8.0 0.00 0.00 0.00 61 1023.5
20260507182004 71 100 2.0 8.0 0.00 0.00 0.00 64 1023.5
20260507181505 72 103 3.0 7.0 0.00 0.00 0.00 64 1023.5
20260507180505 72 101 1.0 6.0 0.00 0.00 0.00 64 1023.5
20260507180004 71 101 1.0 6.0 0.00 0.00 0.00 66 1023.6
20260507175503 70 88 1.0 6.0 0.00 0.00 0.00 68 1023.6
20260507175101 69 99 1.0 7.0 0.00 0.00 0.00 70 1023.6
20260507174637 69 105 4.0 7.0 0.00 0.00 0.00 69 1023.6
20260507174059 69 106 2.0 7.0 0.00 0.00 0.00 70 1023.6
20260507173559 68 100 3.0 7.0 0.00 0.00 0.00 71 1023.7
20260507173059 68 91 2.0 7.0 0.00 0.00 0.00 71 1023.6
20260507172600 68 96 1.0 7.0 0.00 0.00 0.00 71 1023.6
20260507172059 69 103 1.0 7.0 0.00 0.00 0.00 70 1023.7
20260507171619 69 92 1.0 5.0 0.00 0.00 0.00 70 1023.8
20260507170506 67 86 0.0 3.0 0.00 0.00 0.00 74 1023.9
20260507170005 67 84 0.0 2.0 0.00 0.00 0.00 73 1023.9
20260507165502 65 76 0.0 4.0 0.00 0.00 0.00 77 1023.8
20260507165002 65 75 0.0 4.0 0.00 0.00 0.00 77 1023.9
20260507164601 64 57 0.0 1.0 0.00 0.00 0.00 79 1023.9
20260507164058 63 265 0.0 0.0 0.00 0.00 0.00 81 1023.9
20260507163557 63 261 0.0 0.0 0.00 0.00 0.00 82 1023.9
20260507163056 62 261 0.0 0.0 0.00 0.00 0.00 83 1023.9
20260507162554 61 261 0.0 0.0 0.00 0.00 0.00 84 1023.9
20260507162056 61 261 0.0 1.0 0.00 0.00 0.00 84 1024.0
20260507161555 61 261 0.0 4.0 0.00 0.00 0.00 84 1024.0
20260507160546 60 317 0.0 5.0 0.00 0.00 0.00 86 1024.1
20260507160109 60 291 0.0 5.0 0.00 0.00 0.00 85 1024.0
20260507155543 60 242 0.0 5.0 0.00 0.00 0.00 85 1024.0
20260507155046 60 232 0.0 5.0 0.00 0.00 0.00 85 1024.0
20260507154543 60 231 0.0 5.0 0.00 0.00 0.00 84 1024.0
20260507154044 61 157 0.0 2.0 0.00 0.00 0.00 84 1023.9
20260507153544 61 141 0.0 0.0 0.00 0.00 0.00 84 1023.9
20260507153042 61 136 0.0 3.0 0.00 0.00 0.00 85 1023.9
20260507152546 60 135 0.0 3.0 0.00 0.00 0.00 87 1023.9
20260507152042 60 100 0.0 0.0 0.00 0.00 0.00 89 1023.8
20260507151539 59 100 0.0 0.0 0.00 0.00 0.00 90 1023.9
20260507150537 57 100 0.0 0.0 0.00 0.00 0.00 93 1024.0
20260507150038 57 100 0.0 0.0 0.00 0.00 0.00 93 1024.0
20260507145540 57 100 0.0 0.0 0.00 0.00 0.00 93 1024.0
20260507145037 56 100 0.0 0.0 0.00 0.00 0.00 94 1023.9
20260507144536 56 100 0.0 0.0 0.00 0.00 0.00 94 1023.8
20260507144036 56 100 0.0 0.0 0.00 0.00 0.00 94 1023.8
20260507143534 56 100 0.0 0.0 0.00 0.00 0.00 94 1023.7
20260507143034 56 100 0.0 0.0 0.00 0.00 0.00 94 1023.7
20260507142534 55 100 0.0 0.0 0.00 0.00 0.00 94 1023.7
20260507142034 55 100 0.0 0.0 0.00 0.00 0.00 94 1023.6
20260507141534 55 100 0.0 0.0 0.00 0.00 0.00 94 1023.6
20260507140535 55 100 0.0 0.0 0.00 0.00 0.00 94 1023.5
20260507140043 55 100 0.0 0.0 0.00 0.00 0.00 94 1023.5
20260507135533 55 100 0.0 0.0 0.00 0.00 0.00 94 1023.4
20260507135032 55 100 0.0 0.0 0.00 0.00 0.00 94 1023.3
20260507134532 55 100 0.0 0.0 0.00 0.00 0.00 94 1023.3
20260507134031 55 100 0.0 0.0 0.00 0.00 0.00 94 1023.2
20260507133532 55 100 0.0 0.0 0.00 0.00 0.00 94 1023.2
20260507133034 55 100 0.0 0.0 0.00 0.00 0.00 94 1023.1
20260507132531 55 100 0.0 0.0 0.00 0.00 0.00 94 1023.1
20260507132031 55 100 0.0 0.0 0.00 0.00 0.00 94 1023.0
20260507131603 54 100 0.0 0.0 0.00 0.00 0.00 94 1023.0
20260507130530 54 100 0.0 0.0 0.00 0.00 0.00 94 1023.0
20260507130030 54 100 0.0 0.0 0.00 0.00 0.00 94 1023.0
20260507125530 54 100 0.0 0.0 0.00 0.00 0.00 94 1022.9
20260507125030 54 100 0.0 0.0 0.00 0.00 0.00 93 1022.9
20260507124532 54 100 0.0 0.0 0.00 0.00 0.00 93 1022.9
20260507124029 55 100 0.0 0.0 0.00 0.00 0.00 93 1023.0
20260507123529 55 100 0.0 0.0 0.00 0.00 0.00 93 1023.0
20260507123038 55 100 0.0 0.0 0.00 0.00 0.00 93 1022.9
20260507122528 55 100 0.0 0.0 0.00 0.00 0.00 93 1022.9
20260507122028 55 100 0.0 0.0 0.00 0.00 0.00 93 1023.0
20260507121528 55 100 0.0 0.0 0.00 0.00 0.00 93 1022.9
20260507120536 55 100 0.0 0.0 0.00 0.00 0.00 93 1023.0
20260507120040 55 100 0.0 0.0 0.00 0.00 0.00 93 1022.9
20260507115536 55 100 0.0 0.0 0.00 0.00 0.00 93 1023.0
20260507115036 55 100 0.0 0.0 0.00 0.00 0.00 92 1023.0
20260507114535 55 100 0.0 0.0 0.00 0.00 0.00 91 1023.0
20260507114042 55 100 0.0 0.0 0.00 0.00 0.00 92 1023.0
20260507113535 55 100 0.0 0.0 0.00 0.00 0.00 92 1023.1
20260507113100 55 100 0.0 0.0 0.00 0.00 0.00 91 1023.0
20260507112533 56 99 0.0 0.0 0.00 0.00 0.00 91 1023.0
20260507112034 56 100 0.0 0.0 0.00 0.00 0.00 91 1023.1
20260507111533 56 100 0.0 0.0 0.00 0.00 0.00 91 1023.1
20260507110525 56 100 0.0 0.0 0.00 0.00 0.00 91 1023.1
20260507110024 56 100 0.0 0.0 0.00 0.00 0.00 90 1023.1
20260507105524 56 100 0.0 0.0 0.00 0.00 0.00 90 1023.1
20260507105024 56 100 0.0 0.0 0.00 0.00 0.00 90 1023.1
20260507104526 56 100 0.0 3.0 0.00 0.00 0.00 89 1023.1
20260507104024 57 99 0.0 5.0 0.00 0.00 0.00 89 1023.1
20260507103524 57 101 2.0 5.0 0.00 0.00 0.00 89 1023.0
20260507103023 57 101 0.0 6.0 0.00 0.00 0.00 89 1023.1
20260507102523 57 101 1.0 6.0 0.00 0.00 0.00 89 1023.2
20260507102023 57 100 0.0 5.0 0.00 0.00 0.00 89 1023.2
20260507101525 57 101 1.0 6.0 0.00 0.00 0.00 89 1023.2
20260507100519 57 99 2.0 5.0 0.00 0.00 0.00 89 1023.2
20260507100031 57 96 0.0 3.0 0.00 0.00 0.00 90 1023.2
20260507095521 57 96 0.0 3.0 0.00 0.00 0.00 89 1023.2
20260507095020 57 97 0.0 3.0 0.00 0.00 0.00 90 1023.2
20260507094518 57 97 0.0 4.0 0.00 0.00 0.00 90 1023.3
20260507094017 57 97 0.0 4.0 0.00 0.00 0.00 89 1023.4
20260507093516 57 98 0.0 4.0 0.00 0.00 0.00 89 1023.4
20260507093017 57 98 0.0 4.0 0.00 0.00 0.00 89 1023.4
20260507092517 57 98 0.0 2.0 0.00 0.00 0.00 88 1023.4
20260507092017 57 98 0.0 5.0 0.00 0.00 0.00 88 1023.4
20260507091516 57 99 0.0 5.0 0.00 0.00 0.00 88 1023.4
20260507090515 57 54 0.0 0.0 0.00 0.00 0.00 88 1023.5
20260507090015 58 294 0.0 0.0 0.00 0.00 0.00 87 1023.5
20260507085515 58 292 0.0 0.0 0.00 0.00 0.00 87 1023.5
20260507085015 58 292 0.0 0.0 0.00 0.00 0.00 86 1023.5
20260507084535 58 292 0.0 0.0 0.00 0.00 0.00 86 1023.5
20260507084016 57 292 0.0 0.0 0.00 0.00 0.00 85 1023.5
20260507083514 57 292 0.0 0.0 0.00 0.00 0.00 85 1023.5
20260507083021 58 292 0.0 0.0 0.00 0.00 0.00 85 1023.5
20260507082516 58 292 0.0 0.0 0.00 0.00 0.00 84 1023.4
20260507082014 58 292 0.0 0.0 0.00 0.00 0.00 84 1023.4
20260507081514 58 292 0.0 0.0 0.00 0.00 0.00 83 1023.4
20260507080515 58 292 0.0 0.0 0.00 0.00 0.00 83 1023.4
20260507080015 58 292 0.0 0.0 0.00 0.00 0.00 82 1023.4
20260507075513 59 292 0.0 0.0 0.00 0.00 0.00 83 1023.3
20260507075019 59 292 0.0 0.0 0.00 0.00 0.00 83 1023.3
20260507074513 59 292 0.0 0.0 0.00 0.00 0.00 83 1023.3
20260507074014 59 292 0.0 2.0 0.00 0.00 0.00 83 1023.3
20260507073516 59 292 0.0 2.0 0.00 0.00 0.00 83 1023.3
20260507073013 59 316 0.0 2.0 0.00 0.00 0.00 82 1023.3
20260507072514 59 317 0.0 3.0 0.00 0.00 0.00 82 1023.2
20260507072015 59 311 0.0 3.0 0.00 0.00 0.00 82 1023.2
20260507071517 60 301 0.0 4.0 0.00 0.00 0.00 81 1023.2
20260507070513 60 287 0.0 6.0 0.00 0.00 0.00 80 1023.2
20260507070019 60 306 1.0 6.0 0.00 0.00 0.00 80 1023.1
20260507065512 60 280 2.0 7.0 0.00 0.00 0.00 80 1023.1
20260507065013 60 299 0.0 8.0 0.00 0.00 0.00 80 1023.1
20260507064512 60 292 2.0 8.0 0.00 0.00 0.00 79 1023.1
20260507064012 60 298 2.0 8.0 0.00 0.00 0.00 79 1023.1
20260507063516 60 310 0.0 7.0 0.00 0.00 0.00 79 1023.0
20260507063015 61 317 1.0 8.0 0.00 0.00 0.00 79 1023.0
20260507062511 61 271 1.0 8.0 0.00 0.00 0.00 78 1023.1
20260507062013 61 285 0.0 7.0 0.00 0.00 0.00 79 1023.0
20260507061513 61 298 0.0 7.0 0.00 0.00 0.00 78 1023.0
20260507060513 61 301 2.0 9.0 0.00 0.00 0.00 78 1023.0
20260507060013 61 280 1.0 9.0 0.00 0.00 0.00 78 1023.0
20260507055513 61 240 2.0 7.0 0.00 0.00 0.00 77 1023.0
20260507055012 62 291 2.0 9.0 0.00 0.00 0.00 77 1023.0
20260507054513 62 332 2.0 9.0 0.00 0.00 0.00 77 1023.0
20260507054013 62 223 1.0 8.0 0.00 0.00 0.00 77 1022.9
20260507053517 62 259 1.0 11.0 0.00 0.00 0.00 76 1023.0
20260507053012 62 307 1.0 11.0 0.00 0.00 0.00 76 1023.0
20260507052512 62 312 2.0 10.0 0.00 0.00 0.00 76 1023.0
20260507052012 62 268 1.0 7.0 0.00 0.00 0.00 77 1023.0
20260507051513 62 280 1.0 7.0 0.00 0.00 0.00 76 1023.0
20260507050511 63 311 2.0 10.0 0.00 0.00 0.00 77 1022.9
20260507050034 63 244 1.0 10.0 0.00 0.00 0.00 76 1022.9
20260507045511 63 288 3.0 10.0 0.00 0.00 0.00 75 1022.9
20260507045012 63 248 2.0 9.0 0.00 0.00 0.00 75 1022.9
20260507044519 63 308 3.0 10.0 0.00 0.00 0.00 73 1022.9
20260507044011 63 253 3.0 10.0 0.00 0.00 0.00 73 1022.9
20260507043512 64 239 2.0 10.0 0.00 0.00 0.00 74 1022.9
20260507043011 64 302 1.0 10.0 0.00 0.00 0.00 73 1022.8
20260507042511 64 294 2.0 11.0 0.00 0.00 0.00 73 1022.8
20260507042010 64 244 3.0 11.0 0.00 0.00 0.00 72 1022.8
20260507041512 64 179 3.0 10.0 0.00 0.00 0.00 73 1022.7
20260507040511 65 251 2.0 8.0 0.00 0.00 0.00 71 1022.7
20260507040013 65 217 1.0 10.0 0.00 0.00 0.00 71 1022.7
20260507035510 65 172 2.0 11.0 0.00 0.00 0.00 71 1022.7
20260507035010 65 252 2.0 11.0 0.00 0.00 0.00 71 1022.6
20260507034512 65 182 1.0 8.0 0.00 0.00 0.00 71 1022.7
20260507034017 65 298 2.0 8.0 0.00 0.00 0.00 71 1022.7
20260507033510 65 279 2.0 13.0 0.00 0.00 0.00 72 1022.6
20260507033015 65 325 3.0 10.0 0.00 0.00 0.00 71 1022.6
20260507032510 65 312 3.0 10.0 0.00 0.00 0.00 71 1022.5
20260507032009 66 288 1.0 11.0 0.00 0.00 0.00 70 1022.4
20260507031510 66 263 4.0 11.0 0.00 0.00 0.00 70 1022.4
20260507030510 66 272 4.0 15.0 0.00 0.00 0.00 71 1022.4
20260507030011 66 285 4.0 15.0 0.00 0.00 0.00 72 1022.3
20260507025510 67 311 3.0 13.0 0.00 0.00 0.00 72 1022.4
20260507025015 67 261 5.0 13.0 0.00 0.00 0.00 71 1022.3
20260507024515 67 253 3.0 11.0 0.00 0.00 0.00 70 1022.2
20260507024009 67 232 4.0 12.0 0.00 0.00 0.00 70 1022.3
20260507023509 68 280 4.0 12.0 0.00 0.00 0.00 70 1022.3
20260507023010 68 268 4.0 14.0 0.00 0.00 0.00 70 1022.4
20260507022509 68 314 3.0 14.0 0.00 0.00 0.00 71 1022.4
20260507022009 69 278 3.0 10.0 0.00 0.00 0.00 69 1022.4
20260507021518 69 320 1.0 13.0 0.00 0.00 0.00 70 1022.4
20260507020509 70 322 9.0 14.0 0.00 0.00 0.00 67 1022.3
20260507020015 70 288 5.0 10.0 0.00 0.00 0.00 68 1022.4
20260507015510 70 310 3.0 17.0 0.00 0.00 0.00 70 1022.4
20260507015008 70 318 5.0 17.0 0.00 0.00 0.00 66 1022.4
20260507014508 71 335 4.0 18.0 0.00 0.00 0.00 70 1022.4
20260507014013 71 316 8.0 18.0 0.00 0.00 0.00 67 1022.3
20260507013508 72 267 4.0 13.0 0.00 0.00 0.00 64 1022.3
20260507013010 73 289 3.0 12.0 0.00 0.00 0.00 66 1022.3
20260507012507 74 321 1.0 7.0 0.00 0.00 0.00 62 1022.4
20260507012007 74 353 0.0 7.0 0.00 0.00 0.00 59 1022.5
20260507011515 74 224 0.0 7.0 0.00 0.00 0.00 57 1022.4
20260507010512 74 324 0.0 8.0 0.00 0.00 0.00 57 1022.4
20260507010015 73 326 1.0 11.0 0.00 0.00 0.00 57 1022.4
20260507005509 73 331 2.0 11.0 0.00 0.00 0.00 57 1022.4
20260507005012 73 283 3.0 11.0 0.00 0.00 0.00 57 1022.4
20260507004507 73 302 3.0 9.0 0.00 0.00 0.00 58 1022.3
20260507004007 73 269 2.0 11.0 0.00 0.00 0.00 56 1022.2
20260507003507 74 305 4.0 11.0 0.00 0.00 0.00 56 1022.3
20260507003006 74 307 1.0 6.0 0.00 0.00 0.00 57 1022.3
20260507002505 74 310 0.0 7.0 0.00 0.00 0.00 57 1022.4
20260507002005 74 305 0.0 9.0 0.00 0.00 0.00 58 1022.4
20260507001505 73 293 1.0 9.0 0.00 0.00 0.00 57 1022.4
20260507000508 74 302 1.0 7.0 0.00 0.00 0.00 58 1022.4
20260507000002 73 328 0.0 6.0 0.00 0.00 0.00 58 1022.5
20260506235502 73 349 0.0 7.0 0.00 0.00 0.00 59 1022.5
20260506235100 73 314 2.0 8.0 0.00 0.00 0.00 58 1022.6
20260506234626 72 313 2.0 9.0 0.00 0.00 0.00 60 1022.6
20260506234100 72 296 4.0 9.0 0.00 0.00 0.00 58 1022.7
20260506233600 72 296 1.0 8.0 0.00 0.00 0.00 61 1022.7
20260506233101 72 311 1.0 7.0 0.00 0.00 0.00 60 1022.7
20260506232559 72 307 1.0 8.0 0.00 0.00 0.00 60 1022.8
20260506232058 72 311 2.0 8.0 0.00 0.00 0.00 59 1022.8
20260506231557 72 312 1.0 8.0 0.00 0.00 0.00 60 1022.9
20260506231158 72 309 3.0 10.0 0.00 0.00 0.00 58 1023.1
20260506230600 72 321 3.0 10.0 0.00 0.00 0.00 57 1023.1
20260506230058 72 340 0.0 6.0 0.00 0.00 0.00 60 1023.2
20260506225557 71 292 0.0 6.0 0.00 0.00 0.00 60 1023.2
20260506225054 71 288 1.0 8.0 0.00 0.00 0.00 61 1023.3
20260506224552 70 286 0.0 8.0 0.00 0.00 0.00 61 1023.4
20260506224051 70 298 2.0 9.0 0.00 0.00 0.00 60 1023.5
20260506223553 71 309 2.0 9.0 0.00 0.00 0.00 60 1023.6
20260506223057 71 278 2.0 8.0 0.00 0.00 0.00 59 1023.7
20260506222550 71 288 0.0 8.0 0.00 0.00 0.00 58 1023.8
20260506222050 72 294 0.0 6.0 0.00 0.00 0.00 59 1023.8
20260506221551 71 241 0.0 7.0 0.00 0.00 0.00 59 1023.9
20260506221149 72 317 0.0 4.0 0.00 0.00 0.00 56 1024.0
20260506220549 72 282 0.0 3.0 0.00 0.00 0.00 56 1024.0
20260506220048 71 304 0.0 4.0 0.00 0.00 0.00 59 1024.1
20260506215549 71 317 0.0 4.0 0.00 0.00 0.00 60 1024.2
20260506215051 71 273 0.0 3.0 0.00 0.00 0.00 59 1024.3
20260506214548 71 270 0.0 3.0 0.00 0.00 0.00 60 1024.4
20260506214047 71 252 0.0 3.0 0.00 0.00 0.00 58 1024.4
20260506213548 71 273 0.0 3.0 0.00 0.00 0.00 58 1024.5
20260506213045 70 285 0.0 5.0 0.00 0.00 0.00 60 1024.6
20260506212545 70 264 0.0 5.0 0.00 0.00 0.00 59 1024.6
20260506212044 69 243 0.0 7.0 0.00 0.00 0.00 61 1024.7
20260506211544 70 290 0.0 7.0 0.00 0.00 0.00 60 1024.8
20260506211144 70 289 0.0 2.0 0.00 0.00 0.00 59 1024.8
20260506210544 70 205 0.0 2.0 0.00 0.00 0.00 59 1024.8
20260506210041 69 219 0.0 0.0 0.00 0.00 0.00 59 1024.8
20260506205540 69 207 0.0 2.0 0.00 0.00 0.00 63 1024.9